Sheridan, WY

1:12 PM MDT on July 27, 2017 (GMT -0600)
Sheridan County

Weather History for KSHR - October, 2011

Change the Weather History Date:

Sunday, October 16, 2011

  Actual Average Record
Temperature  
Mean Temperature 49 °F 46 °F  
Max Temperature 57 °F 60 °F 87 °F (1991)
Min Temperature 41 °F 31 °F 14 °F (1992)
Degree Days  
Heating Degree Days 16 20  
Month to date heating degree days 174 269  
Since 1 July heating degree days 320 572  
Cooling Degree Days 0 0  
Month to date cooling degree days 12 0  
Year to date cooling degree days 511 418  
Moisture  
Dew Point 38 °F    
Average Humidity 67    
Maximum Humidity 86    
Minimum Humidity 47    
Precipitation  
Precipitation 0.11 in 0.05 in 0.49 in (1979)
Month to date precipitation 2.88 0.86  
Year to date precipitation 16.20 12.34  
Sea Level Pressure  
Sea Level Pressure 30.06 in    
Wind  
Wind Speed 7 mph (SSE)    
Max Wind Speed 20 mph    
Max Gust Speed 24 mph    
Visibility 10 miles    
Events Rain    
T = Trace of Precipitation, MM = Missing Value Source: NWS Daily Summary

Daily Weather History Graph

Daily Weather History Graph

Search for Another Location

Airport or City:

Trip Planner

Search our weather history database for the weather conditions in past years. The results will help you decide how hot, cold, wet, or windy it might be!

Date:

Astronomy

Oct. 16, 2011 Rise Set
Actual Time 7:24 AM MDT 6:21 PM MDT
Civil Twilight 6:54 AM MDT 6:51 PM MDT
Nautical Twilight 6:20 AM MDT 7:25 PM MDT
Astronomical Twilight 5:47 AM MDT 7:59 PM MDT
Moon 8:59 PM MDT (10/16) 11:54 AM MDT (10/16)
Length of Visible Light 11h 56m
Length of Day
10h 57m
Waning Gibbous, 82% of the Moon is Illuminated
Oct 16
Waning Gibbous
Oct 19
Last Quarter
Oct 26
New
Nov 2
First Quarter
Nov 10
Full

Hourly Weather History & Observations

Time (MDT) Temp. Windchill Dew Point Humidity Pressure Visibility Wind Dir Wind Speed Gust Speed Precip Events Conditions
12:53 AM 44.1 °F 40.1 °F 37.0 °F 76% 30.13 in 10.0 mi West 6.9 mph - N/A   Overcast
1:53 AM 43.0 °F 40.3 °F 36.0 °F 76% 30.13 in 10.0 mi South 4.6 mph - 0.00 in   Overcast
2:53 AM 41.0 °F 37.1 °F 36.0 °F 82% 30.17 in 10.0 mi South 5.8 mph - N/A   Overcast
3:53 AM 42.1 °F - 36.0 °F 79% 30.16 in 10.0 mi Calm Calm - N/A   Overcast
4:53 AM 41.0 °F - 36.0 °F 82% 30.17 in 10.0 mi Calm Calm - N/A   Overcast
5:53 AM 42.1 °F - 36.0 °F 79% 30.17 in 10.0 mi Calm Calm - N/A   Overcast
6:53 AM 42.1 °F 40.2 °F 37.0 °F 82% 30.17 in 10.0 mi South 3.5 mph - N/A   Overcast
7:53 AM 43.0 °F - 36.0 °F 76% 30.17 in 10.0 mi Calm Calm - N/A   Overcast
8:53 AM 44.1 °F 39.5 °F 34.0 °F 68% 30.16 in 10.0 mi SE 8.1 mph - N/A   Overcast
9:53 AM 48.0 °F - 34.0 °F 58% 30.12 in 10.0 mi SE 12.7 mph - N/A   Scattered Clouds
10:53 AM 50.0 °F - 34.0 °F 54% 30.11 in 10.0 mi ESE 11.5 mph 21.9 mph N/A   Scattered Clouds
11:53 AM 50.0 °F - 34.0 °F 54% 30.06 in 10.0 mi SE 13.8 mph 21.9 mph N/A   Clear
12:53 PM 51.8 °F - 33.8 °F 50% 30.04 in 10.0 mi SE 12.7 mph - N/A   Clear
1:53 PM 55.0 °F - 36.0 °F 49% 29.99 in 10.0 mi SSE 13.8 mph - N/A   Scattered Clouds
2:53 PM 55.9 °F - 36.0 °F 47% 29.99 in 10.0 mi ESE 10.4 mph - N/A   Mostly Cloudy
3:53 PM 53.1 °F - 39.9 °F 61% 29.98 in 10.0 mi SE 9.2 mph - 0.01 in Rain Light Rain
4:53 PM 52.0 °F - 44.1 °F 74% 29.96 in 10.0 mi SSW 3.5 mph - 0.01 in   Overcast
5:53 PM 51.1 °F - 42.1 °F 71% 29.96 in 10.0 mi ENE 5.8 mph - 0.00 in Rain Light Rain
6:53 PM 48.9 °F - 41.0 °F 74% 29.94 in 10.0 mi SE 3.5 mph - 0.01 in   Mostly Cloudy
7:53 PM 46.9 °F - 43.0 °F 86% 29.95 in 10.0 mi WNW 6.9 mph - N/A   Scattered Clouds
8:53 PM 46.9 °F - 42.1 °F 83% 29.96 in 10.0 mi WNW 8.1 mph - 0.00 in Rain Light Rain
9:53 PM 46.9 °F - 42.1 °F 83% 29.96 in 10.0 mi NW 6.9 mph - 0.01 in   Overcast
10:53 PM 46.9 °F - 41.0 °F 80% 29.96 in 10.0 mi NW 6.9 mph - N/A   Overcast
11:53 PM 46.0 °F 43.1 °F 42.1 °F 86% 29.99 in 8.0 mi NW 5.8 mph - 0.00 in Rain Rain